Flag for India Weather past 2 weeks in New Okhla Industrial Development Authority, Uttar Pradesh, India

Now
97 °F

Haze.


Feels Like: 96 °F
Forecast: 79 / 100 °F
Wind: 9 mph from Southeast

Location: New Delhi Palam Airport

Current Time: Apr 25, 2015 at 4:58:10 PM

Latest Report: Apr 25, 2015 at 4:00 PM


Visibility: 1 mi

Pressure: 29.68 "Hg

Humidity: 27%

Dew point: 57 °F

Location of New Okhla Industrial Development AuthorityLocation

Historic Weather in New Okhla Industrial Development Authority — Graph

°F

New Okhla Industrial Development Authority temperature yesterday

Maximum temperature yesterday: 104 °F (at 2:00 PM)
Minimum temperature yesterday: 79 °F (at 5:30 AM)
Average temperature yesterday: 92 °F

Past Weeks' High & Low Weather Summary

 TemperatureHumidityPressure
High106 °F (Apr 19, 3:30 PM)94% (Apr 13, 5:30 AM)30.09 "Hg (Apr 13, 5:30 AM)
Low66 °F (Apr 13, 5:30 AM)10% (Apr 24, 2:00 PM)29.59 "Hg (Apr 18, 3:30 PM)
Average85 °F42%29.80 "Hg
* Reported Apr 10 3:30 PM — Apr 25 3:30 PM, New Okhla Industrial Development Authority, Weather by CustomWeather, © 2015

Note: Actual official high and low records may vary slightly from our data, if they occured in-between our weather recording intervals... More about our weather records

Advertising

New Okhla Industrial Development Authority weather history for previous 24 hours

 ConditionsComfort  
Time TempWeatherWind HumidityBarometerVisibility
3:30 PM
Sat, Apr 25
97 °FHaze.9 mph25%29.68 "Hg1 mi
3:00 PM97 °FHaze.9 mph27%29.71 "Hg1 mi
2:30 PM97 °FDuststorm.9 mph25%29.71 "Hg1 mi
1:00 PM97 °FDuststorm.13 mph25%29.77 "Hg1 mi
12:30 PM95 °FDuststorm.12 mph26%29.77 "Hg1 mi
12:00 PM91 °FDuststorm.14 mph30%29.77 "Hg1 mi
11:30 AM91 °FDuststorm.12 mph30%29.80 "Hg1 mi
11:00 AM91 °FDuststorm.12 mph30%29.80 "Hg1 mi
10:30 AM90 °FDuststorm.12 mph31%29.80 "Hg1 mi
10:00 AM90 °FDuststorm.12 mph29%29.80 "Hg1 mi
9:30 AM86 °FHaze.14 mph35%29.80 "Hg1 mi
9:00 AM86 °FHaze.14 mph35%29.77 "Hg1 mi
8:30 AM86 °FHaze.14 mph31%29.77 "Hg1 mi
8:00 AM84 °FHaze.14 mph33%29.77 "Hg1 mi
7:00 AM82 °FHaze.5 mph32%29.74 "Hg1 mi
6:30 AM81 °FHaze.5 mph37%29.71 "Hg1 mi
6:00 AM79 °FHaze.5 mph37%29.71 "Hg1 mi
5:00 AM79 °FHaze.3 mph39%29.71 "Hg1 mi
4:30 AM79 °FHaze.3 mph37%29.68 "Hg1 mi
4:00 AM79 °FHaze.3 mph37%29.68 "Hg1 mi
3:30 AM81 °FHaze.3 mph34%29.68 "Hg1 mi
3:00 AM82 °FHaze.5 mph32%29.68 "Hg1 mi
2:30 AM82 °FHaze.5 mph32%29.68 "Hg1 mi
2:00 AM84 °FHaze.7 mph31%29.68 "Hg1 mi
1:30 AM84 °FHaze.7 mph31%29.68 "Hg1 mi
1:00 AM84 °FHaze.6 mph31%29.68 "Hg1 mi
12:30 AM84 °FHaze.6 mph31%29.71 "Hg1 mi
11:30 PM
Fri, Apr 24
84 °FClear.3 mph33%29.71 "Hg1 mi
11:00 PM86 °FClear.3 mph29%29.71 "Hg1 mi
10:30 PM88 °FClear.3 mph27%29.71 "Hg1 mi
10:00 PM88 °FClear.3 mph27%29.71 "Hg1 mi
9:30 PM88 °FClear.6 mph24%29.71 "Hg1 mi
8:30 PM90 °FClear.6 mph26%29.71 "Hg1 mi
8:00 PM91 °FHaze.5 mph23%29.68 "Hg1 mi
7:00 PM97 °FHaze.3 mph23%29.68 "Hg2 mi
6:30 PM99 °FHaze.No wind15%29.68 "Hg2 mi
6:00 PM100 °FDuststorm.3 mph15%29.65 "Hg2 mi
5:30 PM102 °FDuststorm.6 mph14%29.65 "Hg2 mi
5:00 PM104 °FDuststorm.6 mph12%29.65 "Hg2 mi
4:30 PM104 °FDuststorm.5 mph12%29.65 "Hg2 mi
4:00 PM104 °FDuststorm.9 mph12%29.68 "Hg2 mi
Weather by CustomWeather, © 2015

See weather overviewHow to use our weather pages